Precipitable_Water
0.37 0.31 0.27 0.42 0.46 0.49 0.49 0.51 0.56 0.81 0.94 0.98 0.96 0.98 1.06 1.19 1.24 1.27 1.32 1.36 1.28 1.31 1.36 1.36 1.41 1.45 1.48 1.58 1.61 1.55 1.37 1.47 1.54 1.52 1.60 1.72 1.62 1.50 1.58 1.64 1.71 1.75 1.72 1.70
0.29 0.25 0.35 0.45 0.43 0.48 0.53 0.57 0.64 0.82 0.97 0.96 0.92 0.89 1.07 1.13 1.16 1.22 1.30 1.36 1.39 1.27 1.34 1.37 1.43 1.45 1.46 1.47 1.55 1.62 1.59 1.61 1.45 1.55 1.62 1.76 1.75 1.75 1.80 1.66 1.57 1.62 1.68 1.72
0.21 0.26 0.36 0.39 0.36 0.37 0.41 0.48 0.61 0.65 0.85 0.98 0.83 0.73 0.91 1.08 1.15 1.21 1.30 1.36 1.44 1.30 1.23 1.28 1.34 1.40 1.45 1.48 1.49 1.54 1.63 1.67 1.67 1.52 1.58 1.63 1.72 1.75 1.76 1.68 1.63 1.64 1.61 1.66
0.26 0.30 0.34 0.35 0.32 0.31 0.29 0.43 0.54 0.65 0.70 0.56 0.84 0.50 0.74 0.90 0.95 1.08 1.14 1.28 1.36 1.38 1.37 1.31 1.35 1.38 1.47 1.51 1.63 1.65 1.62 1.63 1.67 1.74 1.58 1.51 1.47 1.47 1.54 1.67 1.66 1.69 1.71 1.65
0.25 0.30 0.31 0.31 0.30 0.32 0.29 0.45 0.48 0.58 0.65 0.69 0.72 0.60 0.61 0.80 0.78 0.89 1.05 1.16 1.29 1.43 1.44 1.40 1.40 1.47 1.60 1.70 1.68 1.65 1.67 1.76 1.72 1.71 1.68 1.59 1.44 1.55 1.66 1.56 1.49 1.53 1.62 1.57
0.30 0.36 0.35 0.34 0.34 0.31 0.32 0.33 0.44 0.56 0.57 0.38 0.46 0.56 0.46 0.59 0.70 0.84 1.01 1.13 1.21 1.35 1.44 1.47 1.47 1.59 1.64 1.72 1.76 1.75 1.75 1.78 1.78 1.73 1.73 1.65 1.49 1.51 1.55 1.53 1.48 1.55 1.54 1.52
0.29 0.29 0.33 0.33 0.29 0.30 0.29 0.24 0.19 0.20 0.28 0.27 0.46 0.47 0.44 0.63 0.81 0.86 0.91 1.01 1.14 1.24 1.38 1.40 1.41 1.52 1.58 1.60 1.73 1.85 1.82 1.81 1.76 1.69 1.69 1.70 1.59 1.56 1.51 1.56 1.55 1.51 1.46 1.42
0.27 0.23 0.31 0.35 0.33 0.29 0.27 0.24 0.18 0.15 0.21 0.30 0.53 0.33 0.43 0.61 0.85 0.93 0.91 0.93 1.08 1.20 1.28 1.35 1.40 1.48 1.52 1.58 1.66 1.80 1.74 1.72 1.75 1.67 1.65 1.69 1.65 1.63 1.57 1.55 1.61 1.62 1.58 1.58
0.33 0.30 0.37 0.37 0.37 0.34 0.28 0.23 0.22 0.21 0.34 0.31 0.31 0.37 0.49 0.59 0.81 0.87 0.88 0.87 0.91 1.12 1.23 1.30 1.39 1.47 1.56 1.58 1.61 1.74 1.75 1.75 1.73 1.68 1.71 1.67 1.69 1.66 1.66 1.64 1.61 1.64 1.70 1.57
0.42 0.34 0.38 0.39 0.38 0.37 0.31 0.29 0.19 0.20 0.15 0.16 0.22 0.32 0.34 0.50 0.66 0.83 0.88 0.83 0.86 1.07 1.23 1.25 1.29 1.34 1.44 1.52 1.60 1.70 1.76 1.75 1.82 1.82 1.74 1.70 1.64 1.62 1.63 1.74 1.63 1.62 1.69 1.73
0.46 0.40 0.38 0.41 0.36 0.33 0.31 0.27 0.25 0.23 0.22 0.18 0.20 0.28 0.51 0.55 0.71 0.79 0.88 0.82 0.77 0.84 1.08 1.19 1.20 1.24 1.32 1.44 1.52 1.61 1.66 1.70 1.72 1.79 1.80 1.76 1.70 1.66 1.59 1.65 1.70 1.66 1.67 1.69
0.51 0.42 0.36 0.38 0.41 0.42 0.40 0.34 0.31 0.22 0.20 0.29 0.34 0.34 0.59 0.67 0.74 0.91 0.94 0.95 0.91 0.90 0.96 1.05 1.09 1.16 1.21 1.28 1.36 1.50 1.53 1.49 1.57 1.74 1.81 1.76 1.72 1.74 1.65 1.57 1.63 1.73 1.70 1.72
0.53 0.42 0.35 0.37 0.40 0.41 0.36 0.40 0.41 0.33 0.29 0.27 0.27 0.31 0.58 0.66 0.74 0.91 0.96 1.00 1.02 1.01 1.00 0.99 0.98 0.98 1.09 1.21 1.33 1.37 1.41 1.35 1.45 1.52 1.69 1.79 1.79 1.78 1.77 1.70 1.65 1.66 1.68 1.75
0.59 0.49 0.43 0.36 0.39 0.39 0.37 0.42 0.43 0.40 0.33 0.32 0.34 0.38 0.49 0.59 0.68 0.84 0.94 1.00 1.05 1.06 1.07 1.12 1.10 1.06 1.06 1.10 1.27 1.30 1.34 1.45 1.49 1.48 1.59 1.66 1.77 1.76 1.90 2.02 1.93 1.79 1.64 1.59
0.61 0.48 0.49 0.48 0.46 0.42 0.41 0.41 0.45 0.43 0.46 0.41 0.42 0.43 0.50 0.57 0.66 0.79 0.88 0.99 1.03 1.04 1.11 1.15 1.15 1.07 1.00 1.03 1.07 1.12 1.23 1.38 1.39 1.37 1.44 1.44 1.53 1.75 1.85 2.09 2.03 2.06 1.93 1.71
0.61 0.52 0.53 0.48 0.52 0.47 0.41 0.46 0.46 0.48 0.49 0.51 0.49 0.45 0.57 0.67 0.78 0.78 0.88 0.95 1.01 1.07 1.15 1.26 1.20 1.08 1.03 1.05 1.07 1.16 1.22 1.28 1.36 1.35 1.35 1.45 1.54 1.66 1.82 1.95 1.97 1.82 1.92 1.85
0.55 0.52 0.51 0.42 0.51 0.50 0.41 0.45 0.47 0.48 0.51 0.49 0.46 0.50 0.64 0.65 0.72 0.72 0.86 0.95 1.01 1.11 1.21 1.18 1.04 0.99 0.92 0.99 1.06 1.04 1.14 1.27 1.31 1.38 1.45 1.50 1.63 1.71 1.80 1.86 2.03 2.01 1.84 1.70
0.51 0.53 0.54 0.47 0.50 0.36 0.47 0.54 0.51 0.45 0.50 0.54 0.56 0.61 0.66 0.72 0.78 0.80 0.90 0.93 1.03 1.15 1.21 1.01 1.09 1.00 0.93 1.02 1.06 1.10 1.17 1.24 1.31 1.37 1.44 1.56 1.60 1.65 1.78 1.89 1.93 1.95 2.00 1.93
0.60 0.53 0.48 0.46 0.44 0.48 0.51 0.56 0.53 0.49 0.46 0.56 0.55 0.61 0.67 0.74 0.86 0.85 0.95 1.03 1.09 1.17 1.07 1.12 1.13 1.02 0.94 0.98 1.04 1.05 1.07 1.12 1.19 1.27 1.36 1.50 1.61 1.66 1.70 1.72 1.76 1.86 1.92 1.94
0.62 0.59 0.47 0.49 0.41 0.37 0.53 0.64 0.69 0.63 0.45 0.65 0.64 0.62 0.61 0.76 0.66 0.72 0.95 1.08 1.13 1.16 1.19 1.09 1.11 1.05 1.02 0.99 1.02 0.97 0.95 0.95 0.95 1.04 1.15 1.32 1.43 1.52 1.58 1.67 1.71 1.76 1.80 1.86
0.51 0.51 0.45 0.43 0.41 0.48 0.66 0.72 0.75 0.44 0.48 0.69 0.70 0.69 0.72 0.72 0.82 0.84 1.01 1.10 1.16 1.17 1.17 1.17 1.11 1.04 1.05 1.03 0.98 0.99 0.97 0.95 1.07 1.16 1.23 1.21 1.26 1.28 1.30 1.38 1.48 1.54 1.66 1.71
0.44 0.48 0.47 0.48 0.42 0.37 0.74 0.73 0.57 0.67 0.78 0.79 0.77 0.77 0.79 0.84 0.89 0.92 1.03 1.09 1.14 1.15 1.19 1.20 1.12 1.11 1.16 1.14 1.08 1.10 1.03 1.12 1.23 1.27 1.28 1.27 1.20 1.22 1.24 1.27 1.34 1.46 1.56 1.63
0.44 0.53 0.53 0.59 0.53 0.76 0.80 0.79 0.88 0.87 0.79 0.80 0.78 0.83 0.87 0.85 0.89 0.93 1.01 1.07 1.14 1.17 1.20 1.23 1.20 1.20 1.24 1.27 1.23 1.14 1.11 1.20 1.25 1.24 1.22 1.21 1.18 1.16 1.19 1.19 1.27 1.37 1.48 1.52
0.68 0.77 0.62 0.63 0.77 0.78 0.78 0.88 0.94 0.96 0.89 0.87 0.85 0.91 0.99 0.88 0.91 0.92 1.03 1.14 1.21 1.27 1.29 1.31 1.27 1.23 1.19 1.26 1.28 1.20 1.19 1.18 1.14 1.09 1.08 1.14 1.12 1.13 1.17 1.17 1.23 1.29 1.33 1.33
0.70 0.74 0.66 0.63 0.70 0.73 0.81 0.85 0.88 0.90 0.95 0.88 0.90 0.94 1.03 1.02 0.95 1.03 1.10 1.20 1.25 1.31 1.35 1.36 1.31 1.24 1.21 1.24 1.16 1.20 1.20 1.11 1.00 1.00 1.00 0.99 1.04 1.05 1.05 1.05 1.06 1.16 1.29 1.35
0.65 0.62 0.58 0.53 0.70 0.69 0.72 0.81 0.88 0.88 0.87 0.91 0.95 0.94 1.10 1.20 1.14 1.17 1.19 1.27 1.28 1.31 1.35 1.37 1.29 1.19 1.12 1.08 1.06 1.10 1.11 1.05 0.96 0.86 0.89 0.99 1.01 1.00 1.00 0.99 1.01 1.09 1.13 1.28
Wind_Speed
8 8 12 12 10 7 7 7 7 4 4 3 5 6 8 8 10 12 20 14 13 16 15 14 14 13 12 12 11 11 13 13 13 13 13 13 12 13 12 12 13 12 12 14
7 11 14 11 9 8 7 7 5 4 4 3 6 6 7 8 9 12 18 19 17 14 14 15 15 15 13 13 13 12 12 12 14 15 15 12 12 13 12 11 12 13 11 12
8 8 9 11 11 9 8 8 8 7 7 5 3 5 6 6 9 11 13 19 21 17 16 17 17 16 14 14 13 13 13 12 13 15 15 13 14 13 13 14 13 12 11 11
9 10 10 9 10 9 11 11 11 8 7 7 6 7 7 8 9 10 14 16 19 20 16 19 18 18 16 16 14 13 13 13 13 14 16 16 15 14 14 15 15 14 13 12
10 9 9 9 11 7 11 7 11 10 8 6 8 7 8 6 11 12 13 17 17 22 19 18 20 19 18 15 17 15 14 14 14 15 16 18 17 16 15 16 16 15 14 13
12 11 11 12 10 9 8 5 4 6 7 8 10 10 8 7 10 11 15 16 19 19 21 20 20 19 19 15 15 16 17 15 16 16 16 18 19 18 17 17 17 17 16 15
9 12 12 10 10 8 6 6 8 7 7 10 6 7 11 8 9 11 14 18 19 21 21 20 19 19 19 18 16 16 17 18 17 17 17 17 20 20 20 19 19 18 17 16
5 4 10 8 10 9 8 9 9 10 9 9 5 8 8 7 7 10 10 14 18 20 22 21 20 19 20 19 18 17 16 16 18 18 17 17 19 21 22 21 20 20 20 19
4 6 7 8 10 12 10 8 10 7 8 7 9 10 11 7 4 7 8 8 15 20 21 20 21 21 19 20 19 20 19 18 17 18 19 19 19 21 22 23 22 22 21 21
10 8 8 6 4 4 11 10 6 6 6 10 10 9 9 8 8 9 9 7 9 17 19 19 20 19 18 19 20 21 20 20 19 18 20 21 21 21 23 23 24 24 23 22
16 13 14 8 8 8 6 8 6 8 8 9 9 10 9 10 10 10 11 7 6 11 17 18 19 19 19 18 19 19 20 21 20 21 21 22 22 22 23 24 25 25 25 24
16 14 16 16 12 10 11 12 10 9 11 9 8 10 7 6 6 11 12 10 6 7 11 14 15 16 17 18 19 19 20 21 22 22 23 24 24 23 23 24 25 26 26 27
13 15 14 15 12 11 12 13 11 10 9 12 8 11 9 7 7 9 14 12 10 8 9 11 12 13 14 16 18 19 21 21 22 22 23 24 26 26 25 25 25 27 27 28
15 15 16 19 16 12 12 12 11 12 10 12 13 11 11 10 9 10 13 12 11 9 9 9 8 9 11 12 14 16 18 20 21 23 24 25 25 27 27 27 27 27 28 29
16 18 17 17 15 15 15 14 14 12 12 11 12 12 12 13 10 11 11 11 12 10 10 9 8 7 8 10 12 13 16 18 20 21 24 27 27 27 29 29 29 27 27 28
17 18 17 19 19 17 15 15 15 13 12 11 12 14 13 13 11 10 13 13 13 13 11 11 8 8 9 10 11 12 13 15 17 20 22 24 25 28 29 28 27 26 27 26
20 18 16 18 20 17 17 19 17 15 15 13 13 17 13 13 16 15 16 14 14 15 14 11 9 9 9 9 10 11 12 13 15 17 20 22 24 26 27 28 29 27 27 26
21 20 18 18 16 20 21 19 20 19 17 17 15 15 17 18 20 17 18 16 15 15 14 11 10 9 8 7 7 7 8 8 10 12 14 16 19 22 24 25 25 26 28 28
24 21 21 20 21 21 20 18 17 19 21 20 17 18 17 18 16 18 18 16 17 16 14 11 10 8 8 7 7 6 6 6 7 8 8 10 11 13 17 21 23 24 26 26
22 23 23 22 22 24 23 19 18 17 18 18 17 16 16 15 18 20 21 19 17 17 14 12 10 8 8 8 7 6 6 5 4 4 4 5 5 7 9 12 15 18 21 24
23 22 24 24 24 23 21 22 22 19 19 18 17 15 14 15 16 21 22 20 18 18 16 13 12 11 10 9 8 7 7 6 6 5 5 5 5 6 6 8 10 12 14 15
24 25 25 22 23 25 21 21 21 19 18 18 17 17 18 17 15 20 22 21 21 18 16 15 14 13 12 11 10 9 9 9 8 8 8 7 7 8 8 8 9 10 11 12
23 25 26 28 25 24 23 23 23 20 22 20 19 19 20 20 19 19 21 20 21 20 18 17 15 14 14 13 12 11 11 10 9 9 10 10 10 10 9 9 8 8 7 9
20 20 22 23 25 26 25 25 26 25 22 21 19 20 20 22 23 20 23 22 21 20 20 18 17 16 15 15 14 13 12 12 11 11 12 12 12 11 11 11 10 9 9 8
20 19 20 23 25 25 24 24 25 25 26 25 22 20 19 18 21 22 22 23 22 21 19 18 17 17 16 15 15 15 14 14 13 13 13 13 12 12 11 11 11 11 11 10
23 24 23 23 24 25 27 25 25 25 24 24 22 22 20 20 20 22 22 22 22 20 19 17 17 16 16 15 15 15 15 15 15 14 13 12 12 11 11 12 12 12 12 12
Wind_Direction
236 233 230 218 226 243 258 266 267 283 259 226 230 232 226 220 224 219 212 220 212 208 205 203 199 199 196 194 191 189 187 193 192 192 186 187 189 191 194 199 203 202 199 205
245 238 227 229 233 243 266 251 240 272 209 269 227 236 235 218 231 227 219 220 211 208 208 202 201 198 196 196 196 194 197 199 199 197 193 194 196 200 201 198 198 199 204 211
219 230 204 220 242 244 253 239 231 236 234 255 272 286 231 242 236 236 225 218 213 207 209 205 202 200 202 201 200 201 203 202 204 203 205 208 201 200 205 205 201 202 208 213
234 231 220 226 239 234 265 238 230 222 216 254 236 272 272 242 246 238 222 214 210 209 211 209 202 202 203 206 206 208 207 208 209 208 209 205 205 207 210 209 209 212 215 213
233 220 219 233 235 234 247 215 218 221 226 250 260 271 277 264 253 241 226 215 216 211 208 206 206 206 209 213 213 213 214 218 216 213 213 213 213 214 214 213 214 216 216 216
242 243 236 236 249 234 254 239 250 245 247 269 255 236 271 260 242 236 230 224 217 210 211 212 212 214 211 214 215 219 220 222 218 218 218 220 217 217 216 216 216 217 217 218
254 246 235 232 244 248 235 244 257 259 244 247 250 236 260 269 247 236 226 222 218 215 210 208 209 209 213 218 219 219 224 217 219 220 221 223 220 221 220 218 218 218 219 220
232 259 209 223 225 229 236 230 232 237 235 257 230 252 258 276 250 227 223 223 215 213 210 211 211 212 218 219 221 221 217 215 220 224 226 227 225 225 224 225 225 224 224 225
229 249 232 230 247 231 240 246 233 223 255 246 255 269 277 262 249 201 227 227 212 208 211 212 216 219 220 221 222 219 221 226 228 231 230 230 230 228 227 228 229 228 229 230
247 262 235 246 255 225 218 212 226 244 225 241 259 262 256 267 241 222 217 216 211 209 210 215 214 217 219 221 224 225 227 229 233 237 231 233 233 234 232 231 231 230 231 230
243 243 246 254 232 224 222 224 235 222 225 228 249 254 253 255 231 227 203 202 198 200 209 211 215 220 221 223 226 228 231 232 238 237 235 235 236 235 234 233 232 232 231 232
244 236 239 240 243 252 232 228 227 229 242 244 239 257 257 261 230 204 202 195 196 194 202 210 216 218 221 225 230 235 234 237 239 240 240 239 236 236 237 236 235 234 234 234
241 243 247 260 257 245 235 234 235 235 245 238 240 256 254 258 237 203 206 214 212 210 207 207 212 220 226 231 236 238 238 240 242 241 241 240 238 238 239 239 238 237 236 236
240 240 237 240 237 233 235 230 234 228 241 237 248 259 252 238 232 217 208 219 216 212 208 208 215 225 233 237 240 242 242 244 243 243 243 243 242 242 242 243 242 239 239 238
245 245 240 247 240 238 237 230 228 233 237 241 248 243 241 235 230 224 215 214 207 209 212 213 219 237 242 242 243 245 247 246 248 247 247 246 247 246 244 247 250 242 241 240
257 250 246 247 241 236 237 230 229 238 240 255 246 250 247 236 229 223 215 209 211 208 212 211 233 254 255 252 251 253 255 256 253 252 251 251 250 248 246 247 246 253 238 244
251 250 249 249 239 236 248 232 234 240 244 245 244 247 249 242 231 229 219 218 213 210 212 220 245 256 259 257 254 256 260 263 262 261 258 256 255 252 249 248 246 248 250 238
243 245 244 243 240 236 244 245 242 241 241 247 252 251 250 247 235 233 224 220 212 209 217 235 252 255 258 251 251 252 262 269 271 270 269 265 259 252 251 249 250 248 245 249
238 238 240 239 239 248 245 240 234 239 249 244 248 250 254 246 240 232 221 219 211 212 220 234 241 249 240 241 245 251 266 275 281 284 283 275 267 259 254 253 254 253 252 251
237 236 233 237 237 236 241 247 250 245 247 246 244 250 247 237 233 224 216 214 216 217 223 228 230 231 232 236 239 249 261 269 281 293 304 301 290 276 267 260 258 256 255 252
237 237 231 234 239 246 243 246 243 231 240 259 251 255 237 234 233 219 205 210 217 219 222 226 224 227 233 236 238 246 253 261 265 274 288 295 296 295 292 281 271 266 259 255
237 233 234 234 235 239 244 242 235 237 243 247 252 251 248 247 226 215 212 214 215 219 219 223 225 231 236 242 243 247 255 259 263 266 272 281 287 291 294 293 289 279 264 255
242 237 236 231 236 238 242 239 240 243 242 247 253 259 252 238 222 216 218 212 215 214 218 225 229 234 242 243 244 248 254 256 261 265 271 276 277 282 287 289 289 289 276 272
244 236 235 235 235 237 244 239 238 240 245 246 253 254 248 235 230 228 217 215 213 217 221 227 231 238 241 244 247 248 250 255 263 269 270 271 272 275 281 281 280 277 279 281
238 237 236 237 237 238 234 237 242 243 245 247 250 246 247 235 227 217 215 212 216 217 222 227 233 236 242 243 244 247 251 258 267 270 268 266 266 270 274 277 276 273 270 272
239 239 237 237 235 234 237 239 241 244 243 242 242 244 243 235 225 217 213 213 213 217 223 227 232 234 237 240 244 248 254 259 264 264 264 261 263 267 269 271 272 273 268 264